Flag Weather past 2 weeks in Mülheim / Ruhr, North Rhine-Westphalia, Germany

Now
36 °F

Clear.


Feels Like: 31 °F
Forecast: 37 / 44 °F
Wind: 6 mph from Northeast

Location: Duesseldorf

Current Time: Nov 25, 2014 at 11:29:13 PM

Latest Report: Nov 25, 2014 at 10:50 PM


Visibility: 10 mi

Pressure: 30.15 "Hg

Humidity: 87%

Dew point: 32 °F

Location of Mülheim / RuhrLocation

Historic Weather in Mülheim / Ruhr — Graph

°F

Mülheim / Ruhr temperature yesterday

Maximum temperature yesterday: 52 °F (at 12:20 AM)
Minimum temperature yesterday: 34 °F (at 10:20 PM)
Average temperature yesterday: 46 °F

Past Weeks' High & Low Weather Summary

 TemperatureHumidityPressure
High59 °F (Nov 23, 1:50 PM)100% (Nov 13, 2:50 AM)30.33 "Hg (Nov 13, 2:50 AM)
Low30 °F (Nov 25, 3:50 AM)58% (Nov 21, 1:50 PM)29.50 "Hg (Nov 16, 4:20 PM)
Average48 °F85%29.92 "Hg
* Reported Nov 10 10:20 PM — Nov 25 10:50 PM, Mülheim / Ruhr, Weather by CustomWeather, © 2014

Note: Actual official high and low records may vary slightly from our data, if they occured in-between our weather recording intervals... More about our weather records

Advertising

Mülheim / Ruhr weather history for previous 24 hours

 ConditionsComfort  
Time TempWeatherWind HumidityBarometerVisibility
10:50 PM
Nov 25
36 °FClear.6 mph87%30.15 "Hg10 mi
10:20 PM36 °FClear.6 mph93%30.15 "Hg10 mi
9:50 PM36 °FClear.6 mph93%30.15 "Hg10 mi
9:20 PM36 °FClear.7 mph93%30.15 "Hg10 mi
8:50 PM36 °FClear.7 mph93%30.15 "Hg10 mi
8:20 PM37 °FClear.7 mph93%30.15 "Hg10 mi
7:50 PM37 °FClear.7 mph93%30.18 "Hg10 mi
7:20 PM37 °FClear.8 mph93%30.18 "Hg10 mi
6:50 PM41 °FClear.8 mph87%30.18 "Hg10 mi
6:20 PM43 °FClear.8 mph81%30.18 "Hg10 mi
5:50 PM43 °FClear.7 mph81%30.18 "Hg10 mi
5:20 PM45 °FClear.10 mph76%30.18 "Hg10 mi
4:50 PM46 °FClear.10 mph71%30.18 "Hg10 mi
4:20 PM46 °FSunny.9 mph71%30.18 "Hg10 mi
3:50 PM48 °FSunny.8 mph66%30.18 "Hg10 mi
3:20 PM50 °FSunny.9 mph62%30.18 "Hg10 mi
2:50 PM50 °FSunny.12 mph62%30.21 "Hg10 mi
2:20 PM50 °FSunny.10 mph62%30.21 "Hg10 mi
1:50 PM50 °FSunny.12 mph62%30.24 "Hg10 mi
1:20 PM50 °FSunny.9 mph62%30.24 "Hg10 mi
12:50 PM50 °FSunny.9 mph62%30.24 "Hg10 mi
12:20 PM48 °FSunny.5 mph71%30.27 "Hg10 mi
11:50 AM46 °FSunny.2 mph76%30.27 "Hg10 mi
11:20 AM45 °FSunny.2 mph81%30.27 "Hg10 mi
10:50 AM41 °FSunny.3 mph87%30.30 "Hg10 mi
10:20 AM39 °FSunny.5 mph93%30.27 "Hg10 mi
9:50 AM36 °FSunny.5 mph100%30.30 "Hg10 mi
9:20 AM34 °FSunny.3 mph100%30.30 "Hg10 mi
8:50 AM32 °FSunny.5 mph93%30.30 "Hg10 mi
8:20 AM30 °FFog.5 mph100%30.30 "HgN/A
7:50 AM32 °FSleet. Fog.3 mph100%30.30 "HgN/A
7:20 AM30 °FFog.3 mph100%30.30 "HgN/A
6:50 AM32 °FClear.5 mph100%30.30 "Hg10 mi
6:20 AM30 °FFog.3 mph100%30.30 "HgN/A
5:50 AM30 °FFog.5 mph100%30.30 "HgN/A
5:20 AM30 °FClear.5 mph100%30.30 "Hg10 mi
4:50 AM30 °FFog.2 mph93%30.33 "HgN/A
4:20 AM30 °FFog.3 mph100%30.33 "HgN/A
3:50 AM30 °FFog.3 mph100%30.33 "HgN/A
3:20 AM32 °FFog.2 mph93%30.33 "HgN/A
2:50 AM32 °FClear.2 mph93%30.33 "Hg10 mi
2:20 AM32 °FFog.2 mph93%30.33 "HgN/A
1:50 AM32 °FFog.1 mph100%30.33 "HgN/A
1:20 AM34 °FClear.3 mph93%30.33 "Hg10 mi
12:50 AM36 °FClear.3 mph93%30.33 "Hg10 mi
12:20 AM34 °FClear.3 mph100%30.33 "Hg10 mi
11:50 PM
Nov 24
34 °FClear.2 mph100%30.33 "Hg10 mi
11:20 PM34 °FClear.3 mph100%30.33 "Hg10 mi
Weather by CustomWeather, © 2014

See weather overviewHow to use our weather pages